Temperature
22 21 22 21 21 20 20 20 20 20 20 20 20 20 20 20 20 20 20 19 19 19 19 18 18 18 18 18 18 19 19 19 18 18 18 18 18 18 18 17 17 16 17
22 21 22 21 21 21 21 20 20 20 20 20 20 20 20 20 19 19 19 19 19 19 19 18 18 18 18 18 19 19 19 18 18 18 18 18 18 18 18 17 17 17 17
22 21 22 21 21 21 21 21 20 20 20 20 20 20 20 19 19 19 19 19 19 19 19 18 18 19 19 19 19 19 19 18 18 18 17 17 17 18 18 17 17 17 17
21 21 21 21 21 21 21 21 21 20 20 20 20 20 20 20 19 19 19 19 19 19 19 19 19 19 19 19 19 19 19 18 18 17 17 17 17 18 18 18 17 17 17
21 21 21 21 21 21 21 21 21 21 20 20 20 20 20 20 20 19 19 19 19 19 19 19 19 19 19 19 19 19 19 18 18 17 17 17 17 18 18 18 18 17 17
21 20 21 21 21 21 21 21 21 20 20 20 20 20 20 20 19 19 19 19 19 19 19 19 19 19 19 19 19 19 19 19 18 17 17 17 17 18 18 18 18 18 17
21 20 20 21 21 20 20 21 21 20 20 20 20 20 20 20 19 19 19 19 19 19 19 19 19 20 19 19 19 19 19 19 17 17 17 17 17 18 18 18 18 17 17
21 20 20 21 20 20 20 20 20 20 20 20 20 20 20 20 20 19 19 19 19 19 19 19 19 19 19 19 19 19 19 19 17 17 17 17 17 18 18 18 18 18 17
21 20 19 19 20 20 20 20 20 20 20 20 20 20 20 20 20 19 19 19 19 19 19 19 19 19 19 19 19 19 19 18 17 18 17 17 18 18 18 18 18 18 18
20 20 19 19 19 19 19 20 20 20 20 20 20 20 20 20 20 20 19 19 19 19 19 19 19 19 19 19 19 19 18 18 18 18 18 17 18 18 18 17 17 17 17
20 20 19 19 18 18 18 19 19 20 20 20 20 20 20 19 19 19 19 19 19 19 19 19 19 19 18 18 18 18 18 17 17 18 18 18 18 18 18 18 17 17 17
20 20 19 19 19 19 19 19 19 19 19 19 18 18 19 18 18 18 18 19 19 19 19 19 18 18 18 17 18 18 17 17 18 18 18 17 18 18 18 18 17 17 17
20 20 19 19 19 19 19 19 18 18 18 18 18 18 18 18 18 18 18 18 19 19 18 18 18 17 17 17 18 17 17 17 18 18 18 18 18 18 18 18 18 17 17
20 20 19 19 19 19 19 18 18 18 18 18 18 18 18 18 18 18 18 18 18 18 18 18 18 17 17 17 17 17 17 17 18 18 18 18 18 18 18 18 18 18 17
19 19 19 19 19 19 19 19 18 18 18 18 18 18 18 18 18 18 18 18 18 18 18 18 17 17 17 17 17 17 17 17 17 17 18 18 18 18 18 18 18 18 18
18 18 18 18 18 18 18 18 18 18 18 17 17 17 17 17 17 17 17 17 17 17 18 17 17 17 17 17 17 17 17 17 17 17 17 18 18 18 18 18 18 18 18
17 17 17 17 17 17 18 18 17 17 17 16 17 17 17 17 17 17 17 17 17 17 17 17 17 17 17 17 17 17 17 17 17 17 17 17 18 18 18 18 18 18 18
17 17 17 17 17 17 17 17 17 17 17 16 16 16 16 16 16 17 17 17 17 17 17 17 17 17 17 17 17 17 17 17 17 17 17 17 17 17 17 18 18 18 18
17 17 17 17 17 17 17 17 17 17 17 16 16 16 16 16 16 16 16 17 17 17 17 17 17 17 17 17 17 17 17 17 17 17 17 17 17 17 17 17 18 18 18
16 16 16 16 17 17 16 16 16 16 16 16 15 15 15 15 15 16 16 16 16 16 17 17 17 16 17 16 17 17 17 17 17 17 17 17 17 17 17 17 17 17 18
16 16 16 16 16 16 16 16 16 16 16 15 15 15 15 15 15 15 15 15 16 16 16 16 16 16 16 16 16 17 17 17 17 17 17 17 17 17 17 17 17 17 17
16 16 16 16 16 16 16 16 15 15 15 15 15 14 14 14 15 15 15 15 15 16 16 16 16 16 16 16 16 17 18 18 17 17 17 17 17 17 17 17 17 16 17
15 16 16 16 16 16 16 15 15 15 15 15 15 14 14 14 14 14 15 15 15 15 16 16 16 15 16 16 16 17 18 20 20 18 17 17 16 17 17 17 17 16 16
15 15 15 15 15 15 15 15 14 14 14 14 14 14 14 14 14 14 14 15 15 15 15 15 15 15 15 16 16 16 17 18 18 19 17 16 16 16 16 17 17 16 16
15 15 15 15 15 15 14 14 14 14 14 14 13 13 13 13 14 14 14 14 15 15 15 15 15 15 15 15 16 16 16 16 16 17 19 17 16 16 16 16 16 16 16
15 15 15 14 14 14 13 13 13 13 13 13 13 13 13 13 13 13 13 13 14 14 14 14 15 15 15 15 15 16 16 16 16 17 18 17 17 17 16 16 16 16 16
Wind_Speed
15 21 24 19 17 16 15 14 15 16 17 17 17 16 16 15 14 14 13 12 11 9 8 8 9 9 9 10 10 11 11 11 11 11 11 11 12 12 11 10 9 13 14
18 22 24 20 18 16 15 15 14 15 16 17 17 16 15 15 14 13 12 11 10 9 8 8 9 9 9 9 10 10 10 10 10 10 11 11 11 10 10 6 3 13 13
20 22 23 20 18 17 16 15 14 15 15 16 16 15 14 13 13 12 12 11 10 9 8 8 8 8 8 9 9 9 9 9 9 10 10 10 11 9 8 7 11 13 12
20 21 21 21 19 17 16 15 14 14 14 14 14 14 13 12 12 11 11 10 10 9 9 8 8 8 8 8 9 9 9 9 8 9 8 7 10 11 8 8 10 11 12
18 19 20 21 19 17 16 15 14 13 13 13 13 12 12 12 11 11 11 10 9 9 9 8 8 8 8 8 9 9 8 8 8 10 6 6 7 12 9 9 10 10 11
18 18 21 20 18 17 15 14 14 13 12 12 12 11 11 11 11 11 10 9 8 8 8 8 8 8 9 9 9 9 9 9 10 8 7 6 7 11 10 9 9 10 10
18 16 20 19 18 17 16 14 14 13 12 11 11 11 11 10 10 10 10 9 9 8 8 8 9 9 9 9 10 10 10 10 11 7 7 7 7 11 10 11 10 10 11
16 15 19 18 17 16 15 15 14 13 12 12 11 11 10 10 10 10 10 10 9 9 9 9 9 10 10 10 10 11 11 12 12 9 9 8 9 10 11 12 12 12 12
14 14 15 17 16 15 14 14 13 13 13 12 12 12 11 11 11 11 11 10 10 10 10 11 11 11 11 11 12 12 12 13 13 10 10 9 12 12 12 14 15 15 14
13 13 12 14 15 15 15 14 13 13 13 13 12 12 12 12 13 13 13 13 12 12 12 12 13 13 13 13 14 13 13 13 16 14 11 10 13 12 13 14 17 18 17
12 11 12 12 12 12 12 14 14 14 14 14 14 15 14 14 15 15 18 16 15 15 15 15 15 15 15 16 16 16 15 14 15 14 11 10 13 12 13 14 16 20 21
14 13 11 11 11 11 10 11 11 12 13 14 13 14 14 14 13 14 12 15 16 17 17 17 17 17 17 16 18 19 15 16 15 13 12 12 13 14 15 15 16 19 22
14 13 12 10 10 10 7 7 7 8 9 12 14 14 14 13 13 14 12 13 16 18 17 17 18 17 16 14 13 14 15 15 13 13 12 15 16 17 17 17 17 19 21
11 11 10 9 8 7 6 6 7 7 8 9 12 15 14 10 11 11 11 12 12 12 13 13 11 15 15 16 15 14 15 13 13 12 10 13 16 17 17 18 19 19 21
8 8 7 6 6 5 6 6 7 8 9 11 12 14 15 12 12 12 10 11 12 12 12 11 12 13 13 14 14 15 15 16 15 14 11 13 16 17 17 17 18 19 20
4 4 4 4 4 5 6 6 7 9 10 12 13 15 16 14 12 12 12 12 12 13 13 12 13 12 12 11 14 14 15 16 15 15 15 14 17 18 17 17 18 19 19
4 3 1 1 2 4 6 8 7 9 11 11 12 15 16 16 15 13 13 12 12 13 13 12 13 11 12 13 15 15 13 14 14 15 16 14 14 18 19 18 18 18 19
6 6 5 4 4 5 6 7 7 8 10 10 12 13 15 16 16 13 13 13 12 12 10 10 11 11 11 11 11 11 12 11 14 14 15 15 14 14 17 21 19 19 19
6 5 5 5 6 7 7 6 7 7 8 9 10 10 11 13 15 11 11 10 10 9 10 10 9 10 10 10 11 11 11 11 12 13 13 15 15 15 14 16 20 19 19
5 5 5 5 6 6 6 5 6 6 6 6 7 8 10 10 11 9 8 9 9 8 9 9 9 9 8 9 11 10 9 10 10 11 13 13 13 15 16 15 14 17 21
5 5 5 6 6 6 6 7 8 8 7 7 7 8 9 8 7 6 6 7 7 7 8 9 8 9 9 8 8 9 10 11 11 10 11 11 12 13 13 12 13 13 13
5 5 5 6 7 7 6 6 6 7 7 6 6 7 9 9 7 5 5 6 7 7 7 7 8 8 8 8 8 8 8 9 9 11 10 10 11 10 11 12 12 11 11
4 5 5 6 7 7 8 7 7 6 6 7 8 7 8 9 9 7 6 6 7 7 7 7 8 11 9 9 10 8 7 7 6 7 8 9 9 8 9 9 11 11 12
5 5 6 7 7 8 8 8 9 9 9 8 8 7 8 8 8 7 6 7 7 6 7 8 9 10 11 10 9 9 9 6 5 5 8 9 9 8 8 7 8 9 10
7 8 8 9 9 9 9 9 9 10 9 9 9 8 8 7 7 7 7 7 7 6 7 8 8 10 10 11 9 8 9 7 9 7 6 7 8 8 8 7 7 7 8
9 10 11 11 11 11 11 11 11 11 11 12 11 10 9 7 6 6 6 5 5 6 6 7 9 11 11 11 10 9 8 8 9 9 8 7 7 7 6 5 6 6 5
Wind_Direction
159 150 151 159 160 158 156 153 154 157 160 160 159 157 156 155 154 154 153 153 151 147 141 135 132 129 127 123 121 122 123 125 125 123 120 117 117 118 120 130 148 119 116
152 148 151 158 160 160 157 155 153 155 158 160 159 158 157 156 157 157 157 158 159 157 150 139 134 132 129 127 127 128 131 134 135 132 131 127 124 123 126 132 92 116 127
149 147 154 157 160 161 159 156 154 154 157 159 159 158 158 158 159 161 163 165 167 166 157 147 141 138 136 135 135 136 139 143 146 147 166 149 131 131 131 121 109 126 134
149 150 157 156 161 162 160 158 156 156 157 159 161 161 161 161 163 165 167 169 172 171 161 155 152 148 146 144 144 146 150 155 157 176 184 141 142 137 144 138 134 140 143
148 151 151 157 161 163 162 160 159 159 160 162 164 166 167 168 170 172 173 174 175 172 167 167 165 160 156 156 156 158 162 167 171 208 152 152 139 141 158 155 151 150 151
151 155 151 161 162 163 163 163 163 163 163 166 169 171 175 178 181 182 179 178 178 176 176 177 175 171 169 168 168 171 175 178 194 192 162 177 148 152 169 172 170 166 164
155 155 152 163 164 165 166 167 168 169 169 172 176 178 182 187 192 192 189 189 188 186 188 188 187 183 181 182 183 185 188 195 219 189 184 192 151 153 179 184 186 182 179
156 157 150 162 166 167 169 171 173 175 177 181 184 188 192 196 202 206 205 205 203 200 200 200 199 195 194 195 197 197 200 213 221 211 206 203 153 171 195 197 197 196 192
158 157 156 167 171 173 175 178 179 182 186 190 194 197 201 207 212 216 218 218 218 215 212 211 211 209 206 207 208 209 211 224 245 224 216 212 167 190 211 210 205 203 202
161 164 163 172 174 180 183 185 189 193 196 199 204 209 211 215 220 224 226 220 224 226 224 223 221 220 217 216 216 217 218 223 237 237 223 205 168 197 219 221 211 205 206
166 170 173 174 177 186 191 184 195 201 205 209 211 213 218 224 222 217 225 220 223 229 231 230 229 227 226 223 222 221 222 231 231 239 231 180 172 203 223 227 219 209 207
172 177 179 182 177 190 198 192 206 212 210 218 226 220 222 229 234 233 213 215 227 233 236 234 235 234 233 233 221 216 227 231 240 235 227 177 190 212 225 229 227 218 211
175 180 182 186 187 199 205 212 217 225 226 227 231 232 235 238 235 235 229 217 223 229 234 231 231 235 233 234 232 220 227 234 233 237 226 184 203 218 224 227 228 224 218
177 183 187 188 196 208 223 230 238 242 241 243 237 235 236 236 239 238 234 232 225 225 228 235 234 235 237 237 235 236 233 235 238 238 233 195 210 221 226 228 228 227 222
173 181 184 196 208 218 232 250 254 258 260 257 256 250 246 243 241 238 238 239 238 235 229 231 238 240 241 240 239 238 239 237 238 238 235 212 219 225 228 229 229 227 224
159 171 183 209 233 252 260 266 272 272 269 270 266 261 254 251 249 246 241 239 240 240 241 240 241 242 244 243 242 240 239 239 237 235 236 225 219 223 227 228 228 226 223
70 70 58 304 305 300 295 290 284 281 281 279 276 270 263 256 251 247 246 242 242 242 241 243 248 248 246 244 242 241 238 238 237 234 235 235 228 218 220 225 226 224 223
55 53 34 6 343 321 309 302 298 295 294 288 283 276 269 265 258 250 246 245 244 242 240 240 243 244 244 245 244 243 240 235 236 234 233 232 234 234 219 215 220 223 223
52 48 32 13 353 337 318 306 304 304 300 297 291 286 278 270 264 255 249 249 247 243 240 242 238 241 243 242 242 238 238 235 234 233 233 234 232 233 236 213 210 219 223
53 44 28 13 358 337 330 323 320 318 318 318 316 310 299 282 273 266 255 256 253 243 237 235 241 240 244 244 249 246 235 234 233 234 236 234 234 232 232 233 220 219 218
49 38 24 12 1 350 349 343 341 337 334 334 338 340 329 315 300 282 276 266 260 252 242 235 232 235 234 233 242 246 238 234 232 234 234 238 233 232 236 233 232 236 217
44 33 21 11 1 352 353 337 332 331 330 340 346 345 347 341 323 298 287 284 267 260 251 243 235 244 240 224 236 245 243 228 220 228 227 226 234 227 226 226 229 230 242
30 16 5 355 347 349 341 336 338 332 331 341 345 348 352 350 346 336 310 293 279 269 259 249 238 238 242 231 229 241 245 242 217 199 214 221 219 224 229 227 225 226 231
357 348 343 338 337 334 328 336 338 334 333 336 333 339 339 344 347 349 338 322 306 286 269 255 242 239 238 236 224 234 254 288 262 209 194 201 208 218 230 232 231 226 230
331 331 329 329 326 322 317 311 308 314 321 322 326 326 325 331 338 345 347 339 326 306 286 269 256 241 233 237 234 222 223 228 241 259 223 192 199 209 213 225 237 239 237
321 322 322 323 320 316 308 302 297 299 303 308 310 312 312 314 317 324 324 326 318 308 298 279 262 245 241 241 242 236 225 221 221 227 234 222 214 207 207 220 229 229 235
Height
1512 1514 1516 1519 1523 1525 1528 1531 1534 1536 1538 1540 1542 1543 1544 1546 1547 1548 1549 1550 1551 1552 1553 1554 1555 1556 1557 1557 1558 1558 1558 1559 1559 1559 1560 1560 1561 1561 1562 1563 1564 1565 1565
1511 1513 1516 1520 1523 1526 1529 1531 1534 1536 1538 1540 1542 1544 1545 1546 1548 1549 1550 1551 1552 1553 1554 1555 1556 1557 1558 1558 1559 1559 1560 1560 1560 1561 1562 1562 1563 1563 1564 1565 1566 1567 1567
1512 1514 1517 1521 1524 1527 1529 1532 1534 1537 1539 1541 1543 1544 1546 1547 1548 1549 1550 1551 1552 1553 1555 1556 1557 1557 1558 1559 1559 1560 1561 1561 1562 1563 1563 1566 1565 1565 1566 1566 1567 1568 1568
1514 1516 1519 1522 1525 1528 1530 1533 1535 1537 1539 1541 1543 1544 1546 1547 1549 1550 1551 1551 1552 1554 1555 1556 1557 1558 1559 1559 1560 1561 1562 1562 1563 1564 1567 1568 1568 1567 1567 1568 1569 1569 1570
1516 1518 1520 1523 1526 1529 1531 1534 1536 1538 1540 1542 1543 1545 1546 1547 1548 1550 1551 1552 1553 1554 1555 1556 1557 1558 1559 1560 1561 1561 1562 1563 1564 1565 1568 1569 1569 1568 1568 1569 1570 1571 1572
1517 1520 1522 1524 1527 1530 1532 1535 1537 1539 1540 1542 1543 1545 1546 1547 1548 1549 1551 1552 1553 1554 1555 1556 1557 1558 1559 1560 1561 1562 1563 1564 1565 1568 1568 1569 1570 1569 1569 1570 1571 1572 1573
1520 1523 1523 1526 1528 1531 1533 1535 1537 1539 1540 1542 1543 1544 1545 1547 1548 1549 1550 1551 1552 1553 1554 1555 1556 1558 1559 1560 1561 1562 1563 1564 1565 1569 1568 1569 1569 1569 1570 1570 1571 1572 1574
1522 1525 1524 1526 1529 1531 1534 1535 1537 1539 1540 1541 1543 1544 1545 1546 1547 1548 1549 1550 1551 1553 1554 1555 1556 1557 1558 1559 1560 1561 1562 1563 1565 1568 1568 1569 1568 1569 1570 1570 1571 1572 1574
1525 1527 1526 1528 1530 1532 1534 1535 1537 1539 1540 1541 1542 1543 1544 1545 1546 1547 1548 1549 1550 1551 1552 1553 1554 1555 1556 1557 1558 1559 1560 1561 1563 1566 1567 1567 1567 1568 1569 1570 1571 1572 1573
1525 1527 1528 1530 1531 1532 1534 1535 1536 1538 1539 1540 1541 1542 1543 1543 1544 1545 1546 1547 1548 1549 1550 1551 1552 1553 1554 1555 1556 1557 1558 1559 1560 1564 1564 1564 1564 1566 1567 1568 1570 1571 1572
1524 1526 1528 1530 1530 1532 1534 1534 1535 1536 1537 1538 1539 1539 1540 1541 1543 1543 1543 1544 1545 1546 1547 1548 1549 1550 1551 1552 1553 1553 1554 1556 1559 1560 1561 1561 1561 1562 1564 1566 1567 1569 1570
1521 1524 1526 1528 1529 1530 1532 1533 1534 1535 1536 1536 1537 1537 1538 1539 1540 1541 1541 1540 1541 1542 1543 1544 1546 1547 1548 1549 1550 1550 1551 1553 1556 1556 1557 1556 1557 1559 1560 1562 1564 1566 1568
1520 1522 1525 1526 1527 1529 1530 1531 1532 1533 1533 1533 1534 1534 1534 1535 1536 1537 1537 1537 1537 1538 1540 1541 1542 1543 1544 1545 1547 1547 1548 1550 1551 1552 1553 1552 1553 1555 1556 1558 1560 1562 1564
1520 1522 1524 1525 1526 1527 1528 1529 1530 1530 1531 1531 1530 1530 1531 1530 1531 1532 1533 1534 1534 1535 1535 1537 1537 1539 1540 1541 1542 1543 1544 1545 1546 1547 1548 1548 1549 1550 1552 1554 1556 1558 1560
1520 1521 1522 1523 1524 1525 1526 1527 1527 1527 1528 1528 1527 1526 1526 1526 1526 1527 1527 1528 1529 1530 1531 1531 1532 1533 1534 1535 1536 1537 1538 1540 1541 1542 1543 1543 1545 1546 1548 1549 1551 1553 1556
1521 1521 1522 1523 1524 1524 1525 1524 1523 1523 1523 1522 1521 1521 1520 1520 1520 1521 1521 1522 1523 1524 1525 1526 1527 1527 1528 1530 1530 1531 1532 1534 1535 1536 1538 1539 1540 1542 1543 1545 1547 1549 1551
1521 1521 1522 1522 1522 1522 1522 1522 1521 1519 1519 1518 1516 1515 1514 1514 1514 1514 1514 1515 1517 1519 1519 1519 1520 1521 1522 1524 1524 1525 1526 1527 1529 1530 1532 1534 1536 1537 1538 1540 1542 1544 1546
1521 1521 1521 1521 1521 1521 1520 1519 1517 1516 1514 1512 1510 1509 1507 1507 1506 1506 1507 1509 1510 1512 1513 1513 1514 1516 1516 1518 1518 1519 1520 1521 1522 1524 1526 1528 1530 1533 1534 1535 1537 1539 1541
1521 1521 1521 1521 1520 1519 1518 1516 1514 1512 1510 1507 1505 1502 1500 1499 1499 1499 1500 1502 1504 1505 1506 1507 1509 1510 1511 1512 1513 1514 1515 1516 1517 1519 1521 1523 1525 1527 1529 1530 1531 1533 1535
1522 1522 1521 1521 1519 1518 1517 1515 1512 1510 1508 1504 1501 1498 1495 1494 1493 1493 1493 1494 1497 1498 1500 1501 1503 1504 1506 1507 1509 1510 1510 1511 1512 1514 1516 1518 1520 1521 1524 1526 1526 1528 1529
1523 1522 1521 1520 1519 1517 1515 1514 1511 1509 1506 1503 1499 1496 1492 1490 1488 1487 1486 1488 1491 1492 1493 1495 1497 1499 1501 1503 1505 1506 1507 1507 1508 1509 1511 1513 1515 1516 1518 1520 1521 1523 1525
1523 1522 1521 1519 1518 1516 1514 1512 1509 1507 1504 1501 1498 1494 1491 1488 1485 1484 1483 1484 1486 1488 1488 1490 1492 1495 1497 1500 1502 1503 1503 1504 1503 1504 1505 1507 1509 1512 1513 1515 1516 1517 1519
1524 1522 1520 1518 1517 1515 1513 1511 1509 1506 1503 1500 1497 1493 1490 1487 1485 1483 1482 1483 1483 1483 1484 1486 1488 1490 1494 1496 1498 1499 1499 1498 1498 1500 1501 1502 1504 1507 1509 1511 1512 1513 1514
1523 1521 1519 1517 1515 1513 1511 1509 1506 1504 1501 1498 1495 1491 1488 1486 1483 1481 1480 1480 1479 1480 1480 1482 1484 1487 1489 1492 1493 1494 1496 1496 1497 1496 1498 1499 1500 1502 1505 1506 1508 1509 1510
1522 1520 1518 1515 1513 1510 1508 1506 1504 1502 1499 1497 1493 1490 1487 1484 1481 1479 1478 1477 1476 1476 1477 1478 1480 1483 1485 1487 1489 1490 1491 1493 1494 1495 1495 1497 1498 1499 1501 1502 1503 1505 1506
1521 1518 1516 1513 1510 1507 1505 1502 1500 1498 1495 1493 1490 1487 1485 1482 1479 1477 1475 1474 1473 1473 1473 1474 1476 1478 1480 1482 1484 1486 1488 1489 1490 1492 1493 1494 1495 1496 1497 1498 1499 1500 1501